Hourly Data Report for October 08, 2016

All times are specified in Local Standard Time (LST). Add 1 hour to adjust for Daylight Saving Time where and when it is observed.

ST LEONARD CS
NEW BRUNSWICK

47°09'28.050" N
67°49'55.014" W
245.00 m
810I001
71019
WIY

Download Data

Hourly Data (October 2016)
Hourly Data Report for October 8, 2016
Temp Definition
°C
Dew Point Temp Definition
°C
Rel Hum Definition
%
Wind Dir Definition
10's deg

Wind Spd Definition
km/h
Visibility Definition
km
Stn Press Definition
kPa
Hmdx Definition


Wind Chill Definition


Weather Definition


TIME
00:00 12.3 8.5 78 14 9   99.20     LegendNANA
01:00 10.4 8.0 85 13 5   99.14     LegendNANA
02:00 10.2 8.1 87 13 12   99.07     LegendNANA
03:00 10.7 8.5 86 13 10   99.02     LegendNANA
04:00 8.1 6.8 91 12 5   99.02     LegendNANA
05:00 6.9 6.2 95 12 7   99.02     LegendNANA
06:00 8.6 7.9 95 13 12   98.97     LegendNANA
07:00 9.2 8.4 95 15 10   98.94     LegendNANA
08:00 11.6 10.0 90 16 10   98.91     LegendNANA
09:00 13.4 10.7 84 16 11   98.84     LegendNANA
10:00 14.7 10.6 76 17 15   98.88     LegendNANA
11:00 17.4 10.7 65 18 21   98.82     LegendNANA
12:00 19.2 11.4 60 20 21   98.75     LegendNANA
13:00 19.9 11.2 57 18 21   98.66     LegendNANA
14:00 21.1 10.6 51 18 19   98.50     LegendNANA
15:00 19.9 10.9 56 18 22   98.48     LegendNANA
16:00 18.8 10.2 57 17 23   98.45     LegendNANA
17:00 17.6 10.1 61 18 23   98.40     LegendNANA
18:00 16.5 10.1 66 18 22   98.38     LegendNANA
19:00 15.8 10.2 69 18 19   98.36     LegendNANA
20:00 15.3 9.5 68 18 19   98.37     LegendNANA
21:00 14.5 8.4 67 18 17   98.34     LegendNANA
22:00 14.3 8.7 69 19 16   98.34     LegendNANA
23:00 13.7 7.8 67 19 15   98.33     LegendNANA

Notes on Data Quality.

Legend

  • E = Estimated
  • M = Missing
  • NA = Not Available
  • ‡ = Partner data that is not subject to review by the National Climate Archives
Date modified: